Time,TemperatureF,DewpointF,PressureIn,WindDirection,WindDirectionDegrees,WindSpeedMPH,WindSpeedGustMPH,Humidity,HourlyPrecipIn,Conditions,Clouds,dailyrainin,SoftwareType,DateUTC
2013-01-30 00:09:00,61.0,53.0,29.91,South,190,4.0,10.0,76,0.00,,,0.00,weatherlink.com 1.10,2013-01-30 05:09:00,
2013-01-30 00:25:00,61.7,54.0,29.90,SSE,155,3.0,10.0,75,0.00,,,0.00,weatherlink.com 1.10,2013-01-30 05:25:00,
2013-01-30 00:40:00,61.4,53.0,29.88,SSE,167,2.0,10.0,75,0.00,,,0.00,weatherlink.com 1.10,2013-01-30 05:40:00,
2013-01-30 00:55:00,61.0,53.0,29.86,SSE,152,4.0,11.0,76,0.00,,,0.00,weatherlink.com 1.10,2013-01-30 05:55:00,
2013-01-30 01:10:00,60.7,53.0,29.86,SSE,155,1.0,14.0,77,0.00,,,0.00,weatherlink.com 1.10,2013-01-30 06:10:00,
2013-01-30 01:25:00,60.9,54.0,29.85,South,188,2.0,7.0,77,0.00,,,0.00,weatherlink.com 1.10,2013-01-30 06:25:00,
2013-01-30 01:44:00,61.5,54.0,29.84,SSW,204,2.0,11.0,77,0.00,,,0.00,weatherlink.com 1.10,2013-01-30 06:44:00,
2013-01-30 01:55:00,61.6,55.0,29.83,SW,214,2.0,11.0,79,0.00,,,0.00,weatherlink.com 1.10,2013-01-30 06:55:00,
2013-01-30 02:10:00,61.9,55.0,29.82,SSE,166,5.0,11.0,79,0.00,,,0.00,weatherlink.com 1.10,2013-01-30 07:10:00,
2013-01-30 02:25:00,61.6,55.0,29.82,SSW,195,6.0,10.0,80,0.00,,,0.00,weatherlink.com 1.10,2013-01-30 07:25:00,
2013-01-30 02:40:00,61.7,56.0,29.80,SSE,163,1.0,8.0,81,0.00,,,0.00,weatherlink.com 1.10,2013-01-30 07:40:00,
2013-01-30 02:55:00,61.6,56.0,29.79,South,173,2.0,9.0,82,0.00,,,0.00,weatherlink.com 1.10,2013-01-30 07:55:00,
2013-01-30 03:10:00,61.7,56.0,29.79,SSW,193,4.0,13.0,81,0.00,,,0.00,weatherlink.com 1.10,2013-01-30 08:10:00,
2013-01-30 03:25:00,62.0,56.0,29.78,South,176,6.0,13.0,81,0.00,,,0.00,weatherlink.com 1.10,2013-01-30 08:25:00,
2013-01-30 03:40:00,62.2,56.0,29.78,WSW,240,4.0,14.0,81,0.00,,,0.00,weatherlink.com 1.10,2013-01-30 08:40:00,
2013-01-30 03:55:00,62.1,56.0,29.77,SE,128,4.0,8.0,81,0.00,,,0.00,weatherlink.com 1.10,2013-01-30 08:55:00,
2013-01-30 04:10:00,61.8,56.0,29.76,SSE,163,4.0,14.0,81,0.00,,,0.00,weatherlink.com 1.10,2013-01-30 09:10:00,
2013-01-30 04:25:00,62.4,56.0,29.74,SSE,155,11.0,19.0,80,0.00,,,0.00,weatherlink.com 1.10,2013-01-30 09:25:00,
2013-01-30 04:40:00,62.8,56.0,29.73,WSW,245,8.0,23.0,77,0.00,,,0.00,weatherlink.com 1.10,2013-01-30 09:40:00,
2013-01-30 04:56:00,63.2,56.0,29.72,SSW,194,5.0,16.0,76,0.00,,,0.00,weatherlink.com 1.10,2013-01-30 09:56:00,
2013-01-30 05:11:00,63.6,56.0,29.71,South,191,6.0,19.0,75,0.00,,,0.00,weatherlink.com 1.10,2013-01-30 10:11:00,
2013-01-30 05:25:00,63.8,55.0,29.71,SW,224,6.0,16.0,74,0.00,,,0.00,weatherlink.com 1.10,2013-01-30 10:25:00,
2013-01-30 05:40:00,63.8,55.0,29.68,South,191,11.0,22.0,74,0.00,,,0.00,weatherlink.com 1.10,2013-01-30 10:40:00,
2013-01-30 05:55:00,64.0,55.0,29.68,SSE,167,13.0,25.0,73,0.00,,,0.00,weatherlink.com 1.10,2013-01-30 10:55:00,
2013-01-30 06:10:00,64.5,55.0,29.68,SW,233,7.0,20.0,72,0.00,,,0.00,weatherlink.com 1.10,2013-01-30 11:10:00,
2013-01-30 06:26:00,64.8,56.0,29.67,SSE,148,15.0,20.0,72,0.00,,,0.00,weatherlink.com 1.10,2013-01-30 11:26:00,
2013-01-30 06:41:00,64.8,56.0,29.66,SSW,198,16.0,22.0,72,0.00,,,0.00,weatherlink.com 1.10,2013-01-30 11:41:00,
2013-01-30 06:56:00,64.8,56.0,29.63,SSW,210,11.0,28.0,72,0.00,,,0.00,weatherlink.com 1.10,2013-01-30 11:56:00,
2013-01-30 07:11:00,65.1,55.0,29.62,SSW,201,9.0,23.0,71,0.00,,,0.00,weatherlink.com 1.10,2013-01-30 12:11:00,
2013-01-30 07:26:00,65.3,55.0,29.62,South,191,12.0,21.0,70,0.00,,,0.00,weatherlink.com 1.10,2013-01-30 12:26:00,
2013-01-30 07:41:00,65.5,55.0,29.63,SSW,198,13.0,19.0,70,0.00,,,0.00,weatherlink.com 1.10,2013-01-30 12:41:00,
2013-01-30 07:56:00,65.8,56.0,29.64,SW,215,15.0,21.0,70,0.00,,,0.00,weatherlink.com 1.10,2013-01-30 12:56:00,
2013-01-30 08:11:00,65.6,56.0,29.63,SSW,200,10.0,21.0,70,0.00,,,0.00,weatherlink.com 1.10,2013-01-30 13:11:00,
2013-01-30 08:26:00,65.5,56.0,29.63,SSW,194,13.0,18.0,71,0.00,,,0.00,weatherlink.com 1.10,2013-01-30 13:26:00,
2013-01-30 08:41:00,66.2,56.0,29.63,SSE,150,6.0,23.0,70,0.00,,,0.00,weatherlink.com 1.10,2013-01-30 13:41:00,
2013-01-30 08:56:00,66.7,57.0,29.63,SE,137,22.0,30.0,70,0.00,,,0.00,weatherlink.com 1.10,2013-01-30 13:56:00,
2013-01-30 09:11:00,66.8,57.0,29.63,SW,231,9.0,22.0,70,0.00,,,0.00,weatherlink.com 1.10,2013-01-30 14:11:00,
2013-01-30 09:26:00,66.3,57.0,29.65,South,173,8.0,17.0,72,0.00,,,0.00,weatherlink.com 1.10,2013-01-30 14:26:00,
2013-01-30 09:41:00,63.9,55.0,29.69,NNW,344,6.0,12.0,73,0.00,,,0.00,weatherlink.com 1.10,2013-01-30 14:41:00,
2013-01-30 09:56:00,57.6,54.0,29.66,NE,37,16.0,21.0,88,0.21,,,0.21,weatherlink.com 1.10,2013-01-30 14:56:00,
2013-01-30 10:11:00,56.5,54.0,29.68,NE,40,0.0,6.0,92,0.35,,,0.35,weatherlink.com 1.10,2013-01-30 15:11:00,
2013-01-30 10:27:00,56.4,55.0,29.70,SE,143,4.0,6.0,93,0.38,,,0.38,weatherlink.com 1.10,2013-01-30 15:27:00,
2013-01-30 10:41:00,56.3,55.0,29.68,ESE,118,1.0,2.0,94,0.41,,,0.41,weatherlink.com 1.10,2013-01-30 15:41:00,
2013-01-30 10:56:00,56.1,55.0,29.68,SSE,152,4.0,4.0,95,0.25,,,0.46,weatherlink.com 1.10,2013-01-30 15:56:00,
2013-01-30 11:11:00,55.8,54.0,29.66,SE,134,1.0,3.0,95,0.16,,,0.51,weatherlink.com 1.10,2013-01-30 16:11:00,
2013-01-30 11:26:00,55.8,55.0,29.66,SSE,149,0.0,3.0,96,0.17,,,0.55,weatherlink.com 1.10,2013-01-30 16:26:00,
2013-01-30 11:41:00,55.8,55.0,29.66,East,100,0.0,3.0,96,0.17,,,0.58,weatherlink.com 1.10,2013-01-30 16:41:00,
2013-01-30 11:56:00,55.7,55.0,29.66,SSE,167,1.0,2.0,96,0.15,,,0.62,weatherlink.com 1.10,2013-01-30 16:56:00,
2013-01-30 12:11:00,55.7,55.0,29.63,NNE,20,0.0,2.0,96,0.14,,,0.66,weatherlink.com 1.10,2013-01-30 17:11:00,
2013-01-30 12:26:00,55.8,55.0,29.63,SE,131,0.0,3.0,96,0.17,,,0.72,weatherlink.com 1.10,2013-01-30 17:26:00,
2013-01-30 12:41:00,55.8,55.0,29.62,SW,221,1.0,3.0,97,0.15,,,0.73,weatherlink.com 1.10,2013-01-30 17:41:00,
2013-01-30 12:57:00,55.7,55.0,29.62,SSE,151,2.0,3.0,96,0.14,,,0.76,weatherlink.com 1.10,2013-01-30 17:57:00,
2013-01-30 13:11:00,55.3,54.0,29.61,SSE,155,2.0,4.0,96,0.15,,,0.82,weatherlink.com 1.10,2013-01-30 18:11:00,
2013-01-30 13:27:00,55.1,54.0,29.60,North,356,1.0,2.0,97,0.17,,,0.89,weatherlink.com 1.10,2013-01-30 18:27:00,
2013-01-30 13:42:00,54.9,54.0,29.57,NE,50,1.0,2.0,97,0.23,,,0.96,weatherlink.com 1.10,2013-01-30 18:42:00,
2013-01-30 13:57:00,54.7,54.0,29.56,NE,47,0.0,2.0,97,0.26,,,1.03,weatherlink.com 1.10,2013-01-30 18:57:00,
2013-01-30 14:12:00,54.8,54.0,29.56,East,82,0.0,0.0,97,0.24,,,1.07,weatherlink.com 1.10,2013-01-30 19:12:00,
2013-01-30 14:28:00,54.7,54.0,29.57,SSE,149,0.0,1.0,97,0.22,,,1.12,weatherlink.com 1.10,2013-01-30 19:28:00,
2013-01-30 14:42:00,54.8,54.0,29.57,SSE,156,1.0,4.0,97,0.23,,,1.19,weatherlink.com 1.10,2013-01-30 19:42:00,
2013-01-30 14:57:00,54.6,54.0,29.55,ESE,102,0.0,4.0,97,0.22,,,1.25,weatherlink.com 1.10,2013-01-30 19:57:00,
2013-01-30 15:12:00,54.6,54.0,29.54,South,178,0.0,1.0,97,0.22,,,1.29,weatherlink.com 1.10,2013-01-30 20:12:00,
2013-01-30 15:27:00,54.6,54.0,29.51,ESE,119,0.0,4.0,97,0.22,,,1.34,weatherlink.com 1.10,2013-01-30 20:27:00,
2013-01-30 15:42:00,54.6,54.0,29.51,South,181,3.0,6.0,97,0.17,,,1.36,weatherlink.com 1.10,2013-01-30 20:42:00,
2013-01-30 15:57:00,54.7,54.0,29.49,SSE,155,3.0,3.0,96,0.12,,,1.37,weatherlink.com 1.10,2013-01-30 20:57:00,
2013-01-30 16:12:00,54.6,54.0,29.48,SSW,200,0.0,6.0,96,0.08,,,1.37,weatherlink.com 1.10,2013-01-30 21:12:00,
2013-01-30 16:27:00,54.3,53.0,29.47,SSE,149,1.0,3.0,96,0.04,,,1.38,weatherlink.com 1.10,2013-01-30 21:27:00,
2013-01-30 16:42:00,54.4,53.0,29.47,South,176,4.0,5.0,96,0.03,,,1.39,weatherlink.com 1.10,2013-01-30 21:42:00,
2013-01-30 16:58:00,54.5,53.0,29.46,South,172,3.0,7.0,95,0.04,,,1.41,weatherlink.com 1.10,2013-01-30 21:58:00,
2013-01-30 17:13:00,54.5,53.0,29.46,SW,228,2.0,8.0,95,0.04,,,1.41,weatherlink.com 1.10,2013-01-30 22:13:00,
2013-01-30 17:27:00,54.2,53.0,29.46,SW,226,2.0,3.0,96,0.04,,,1.43,weatherlink.com 1.10,2013-01-30 22:27:00,
2013-01-30 17:43:00,54.0,53.0,29.46,SW,226,0.0,2.0,96,0.06,,,1.45,weatherlink.com 1.10,2013-01-30 22:43:00,
2013-01-30 17:57:00,53.8,53.0,29.45,SSW,207,0.0,0.0,97,0.06,,,1.47,weatherlink.com 1.10,2013-01-30 22:57:00,
2013-01-30 18:12:00,53.7,53.0,29.45,South,184,2.0,3.0,97,0.12,,,1.53,weatherlink.com 1.10,2013-01-30 23:12:00,
2013-01-30 18:28:00,52.7,51.0,29.48,SSW,211,3.0,11.0,94,0.14,,,1.57,weatherlink.com 1.10,2013-01-30 23:28:00,
2013-01-30 18:43:00,50.8,49.0,29.48,West,281,2.0,7.0,93,0.15,,,1.60,weatherlink.com 1.10,2013-01-30 23:43:00,
2013-01-30 18:58:00,49.3,46.0,29.48,South,184,5.0,17.0,89,0.15,,,1.62,weatherlink.com 1.10,2013-01-30 23:58:00,
2013-01-30 19:13:00,47.7,45.0,29.51,WSW,253,4.0,13.0,91,0.11,,,1.64,weatherlink.com 1.10,2013-01-31 00:13:00,
2013-01-30 19:28:00,46.9,45.0,29.49,South,169,4.0,9.0,91,0.10,,,1.67,weatherlink.com 1.10,2013-01-31 00:28:00,
2013-01-30 19:43:00,46.3,44.0,29.50,SSW,193,5.0,6.0,92,0.09,,,1.69,weatherlink.com 1.10,2013-01-31 00:43:00,
2013-01-30 19:58:00,45.8,44.0,29.49,SSE,163,1.0,3.0,94,0.07,,,1.70,weatherlink.com 1.10,2013-01-31 00:58:00,
2013-01-30 20:13:00,45.5,44.0,29.50,ESE,116,2.0,3.0,94,0.05,,,1.70,weatherlink.com 1.10,2013-01-31 01:13:00,
2013-01-30 20:43:00,45.8,43.0,29.47,SE,142,5.0,13.0,88,0.03,,,1.72,weatherlink.com 1.10,2013-01-31 01:43:00,
2013-01-30 20:58:00,45.1,42.0,29.49,SW,217,2.0,15.0,90,0.02,,,1.72,weatherlink.com 1.10,2013-01-31 01:58:00,
2013-01-30 21:13:00,44.7,42.0,29.50,SSW,204,2.0,9.0,91,0.02,,,1.72,weatherlink.com 1.10,2013-01-31 02:13:00,
2013-01-30 21:28:00,44.5,42.0,29.46,SSW,198,2.0,10.0,90,0.02,,,1.73,weatherlink.com 1.10,2013-01-31 02:28:00,
2013-01-30 21:44:00,44.3,42.0,29.46,SSW,212,5.0,15.0,90,0.01,,,1.73,weatherlink.com 1.10,2013-01-31 02:44:00,
2013-01-30 21:58:00,44.3,42.0,29.49,SW,231,3.0,10.0,90,0.01,,,1.73,weatherlink.com 1.10,2013-01-31 02:58:00,
2013-01-30 22:13:00,44.3,42.0,29.47,SSE,163,7.0,11.0,90,0.01,,,1.74,weatherlink.com 1.10,2013-01-31 03:13:00,
2013-01-30 22:29:00,44.0,41.0,29.49,SW,229,1.0,10.0,90,0.01,,,1.74,weatherlink.com 1.10,2013-01-31 03:29:00,
2013-01-30 22:44:00,43.9,41.0,29.48,NE,47,3.0,11.0,90,0.01,,,1.74,weatherlink.com 1.10,2013-01-31 03:44:00,
2013-01-30 22:59:00,43.9,42.0,29.50,WSW,255,2.0,7.0,91,0.01,,,1.74,weatherlink.com 1.10,2013-01-31 03:59:00,
2013-01-30 23:14:00,41.1,38.0,29.50,SSE,163,5.0,18.0,88,0.07,,,1.81,weatherlink.com 1.10,2013-01-31 04:14:00,
2013-01-30 23:29:00,39.7,37.0,29.54,SSW,197,0.0,19.0,90,0.08,,,1.82,weatherlink.com 1.10,2013-01-31 04:29:00,
2013-01-30 23:44:00,39.3,36.0,29.53,WSW,242,2.0,13.0,89,0.08,,,1.82,weatherlink.com 1.10,2013-01-31 04:44:00,
2013-01-30 23:59:00,39.1,37.0,29.54,East,96,2.0,12.0,90,0.08,,,1.82,weatherlink.com 1.10,2013-01-31 04:59:00,